Location: Hiram
(41.3130°N, 81.1440°W)
Time: 11:19:11
(UTC-04:00)

Amateur Radio Satellites - All Passes

Search period start: 23 August 2014 10:49
Search period end: 24 August 2014 10:49
Location: Hiram, 41.3130°N, 81.1440°W

Satellite Date Start Highest point End Downlink Frequencies (MHz)
Time Altitude Azimuth
HO-68 23 Aug 11:03:50 11:10:57 73° 289° (WNW) 11:18:04 435.675 MHz FM
RS-15 23 Aug 11:11:44 11:22:32 56° 312° (NW) 11:33:16 29.354 - 29.394 USB, Beacon 29.352 USB
UKube-1 23 Aug 11:29:21 11:33:28 43° 289° (WNW) 11:37:33 145.840 MHz, 145.915 MHz
Oscar 11 23 Aug 11:44:12 11:48:24 47° 288° (WNW) 11:52:35 145.825 FM, Beacon 2401.500 USB
FUNcube-1 23 Aug 11:46:47 11:51:13 72° 102° (ESE) 11:55:45 145.950 - 145.970 MHz USB
Saudisat 1A 23 Aug 11:47:06 11:48:58 13° 252° (WSW) 11:50:50 436.775 MHz
KITSAT 1 23 Aug 12:20:14 12:27:09 33° 253° (WSW) 12:34:02 435.175 FM
Oscar 19 23 Aug 12:37:37 12:39:50 13° 59° (ENE) 12:42:03 437.125 CW, 437.150 USB
HO-68 23 Aug 12:53:51 12:57:27 15° 309° (NW) 13:01:02 435.675 MHz FM
JAS-1B 23 Aug 12:56:55 13:03:22 21° 54° (NE) 13:09:28 435.800 - 435.900 CW/SSB
ISS 23 Aug 13:04:03 13:05:45 13° 130° (SE) 13:07:27 145.800 FM
Uribyol 2 23 Aug 13:04:38 13:05:47 11° 57° (ENE) 13:06:56 436.500 FM
Oscar 16 23 Aug 13:08:42 13:12:52 26° 65° (ENE) 13:17:04 437.025 USB, Beacon 2401.1428
AO-27 23 Aug 13:17:40 13:20:18 14° 60° (ENE) 13:22:57 436.795 MHz FM
FUNcube-1 23 Aug 13:25:22 13:27:03 12° 298° (WNW) 13:28:45 145.950 - 145.970 MHz USB
RS-15 23 Aug 13:29:47 13:38:01 23° 342° (NNW) 13:46:19 29.354 - 29.394 USB, Beacon 29.352 USB
TMSAT-1 23 Aug 13:58:10 13:59:06 10° 57° (ENE) 14:00:02 436.925 FM
AO-Echo 23 Aug 14:06:35 14:11:21 40° 70° (ENE) 14:16:01 ?
SO-50 23 Aug 14:08:51 14:12:47 25° 45° (NE) 14:16:45 436.795 FM
Oscar 19 23 Aug 14:13:17 14:18:26 86° 256° (WSW) 14:23:38 437.125 CW, 437.150 USB
MaSat-1 23 Aug 14:21:56 14:23:05 11° 97° (E) 14:24:15 437.345 MHz
ITAMSAT 1 23 Aug 14:27:14 14:32:19 59° 72° (ENE) 14:37:24 435.822 SSB
Gurwin Techsat 1B 23 Aug 14:36:40 14:41:20 32° 67° (ENE) 14:46:01 435.225 FM
ISS 23 Aug 14:38:47 14:42:05 70° 326° (NW) 14:45:24 145.800 FM
Uribyol 2 23 Aug 14:39:15 14:44:24 81° 75° (ENE) 14:49:35 436.500 FM
JAS-1B 23 Aug 14:42:37 14:52:30 76° 72° (ENE) 15:01:47 435.800 - 435.900 CW/SSB
Oscar 16 23 Aug 14:47:12 14:52:00 40° 262° (W) 14:56:51 437.025 USB, Beacon 2401.1428
AO-27 23 Aug 14:53:58 14:59:09 78° 257° (WSW) 15:04:21 436.795 MHz FM
UOSAT-12 23 Aug 15:14:51 15:16:49 12° 35° (NE) 15:18:47 437.025 FM, 437.400 FM
AO-7 23 Aug 15:15:41 15:22:18 27° 55° (NE) 15:28:54 29.400 - 29.500 MHz
TMSAT-1 23 Aug 15:32:49 15:38:06 76° 74° (ENE) 15:43:24 436.925 FM
AO-Echo 23 Aug 15:46:05 15:50:13 24° 265° (W) 15:54:17 ?
RS-15 23 Aug 15:47:23 15:55:44 24° 19° (NNE) 16:04:12 29.354 - 29.394 USB, Beacon 29.352 USB
SO-50 23 Aug 15:48:58 15:53:34 47° 243° (WSW) 15:58:12 436.795 FM
MaSat-1 23 Aug 15:54:31 15:59:16 87° 296° (WNW) 16:04:27 437.345 MHz
ITAMSAT 1 23 Aug 16:08:55 16:12:11 17° 268° (W) 16:15:27 435.822 SSB
Gurwin Techsat 1B 23 Aug 16:16:32 16:21:15 32° 264° (W) 16:25:59 435.225 FM
ISS 23 Aug 16:16:52 16:19:17 18° 345° (NNW) 16:21:41 145.800 FM
Uribyol 2 23 Aug 16:22:41 16:24:28 12° 271° (W) 16:26:16 436.500 FM
Uosat F 23 Aug 16:28:14 16:33:05 52° 71° (ENE) 16:37:57 435.120 FM
JAS-1B 23 Aug 16:35:22 16:43:29 29° 269° (W) 16:51:21 435.800 - 435.900 CW/SSB
UOSAT-12 23 Aug 16:53:10 16:57:54 66° 55° (NE) 17:02:32 437.025 FM, 437.400 FM
AO-7 23 Aug 17:06:00 17:14:20 74° 254° (WSW) 17:22:42 29.400 - 29.500 MHz
JAS-2 23 Aug 17:07:27 17:11:18 17° 62° (ENE) 17:14:56 435.800 - 435.900 CW/SSB, 435.910 FM
TMSAT-1 23 Aug 17:16:13 17:18:35 13° 271° (W) 17:20:57 436.925 FM
OPAL 23 Aug 17:21:27 17:26:14 36° 99° (E) 17:30:59 ?
PANSAT 23 Aug 17:21:45 17:23:04 11° 175° (S) 17:24:23 not established
MaSat-1 23 Aug 17:34:26 17:37:12 15° 315° (NW) 17:40:02 437.345 MHz
ISS 23 Aug 17:55:05 17:57:00 14° 5° (N) 17:58:55 145.800 FM
RS-15 23 Aug 18:00:20 18:11:12 58° 49° (NE) 18:22:25 29.354 - 29.394 USB, Beacon 29.352 USB
Hamsat 23 Aug 18:01:59 18:05:56 38° 71° (ENE) 18:09:56 145.90 MHz
Uosat F 23 Aug 18:08:47 18:12:10 18° 267° (W) 18:15:33 435.120 FM
Sapphire 23 Aug 18:27:42 18:31:53 24° 107° (ESE) 18:36:06 437.095 MHz 1200 baud AX-25 AFSK
UOSAT-12 23 Aug 18:34:56 18:37:29 15° 252° (WSW) 18:40:00 437.025 FM, 437.400 FM
JAS-2 23 Aug 18:49:11 18:55:53 79° 257° (WSW) 19:01:47 435.800 - 435.900 CW/SSB, 435.910 FM
STRAND 1 23 Aug 18:54:20 18:56:12 12° 89° (E) 18:58:04 ?
PCSat 23 Aug 18:56:53 19:02:00 46° 113° (ESE) 19:07:10 145.825 MHz
OPAL 23 Aug 19:00:30 19:04:59 30° 296° (WNW) 19:09:27 ?
PANSAT 23 Aug 19:01:33 19:02:27 11° 188° (S) 19:03:20 not established
AO-7 23 Aug 19:04:54 19:08:26 13° 272° (W) 19:11:59 29.400 - 29.500 MHz
ISS 23 Aug 19:31:30 19:34:31 30° 25° (NNE) 19:37:31 145.800 FM
SO-67 23 Aug 19:37:46 19:41:11 65° 76° (ENE) 19:44:39 435.3500 MHz FM
Hamsat 23 Aug 19:39:02 19:42:02 18° 268° (W) 19:45:04 145.90 MHz
HO-68 23 Aug 19:47:47 19:52:11 18° 54° (NE) 19:56:34 435.675 MHz FM
Sapphire 23 Aug 20:09:44 20:14:58 49° 305° (NW) 20:20:14 437.095 MHz 1200 baud AX-25 AFSK
RS-15 23 Aug 20:13:05 20:23:16 44° 251° (WSW) 20:33:52 29.354 - 29.394 USB, Beacon 29.352 USB
STRAND 1 23 Aug 20:30:52 20:35:58 78° 286° (WNW) 20:41:03 ?
JAS-2 23 Aug 20:40:09 20:41:34 11° 271° (W) 20:42:57 435.800 - 435.900 CW/SSB, 435.910 FM
PCSat 23 Aug 20:41:00 20:45:36 28° 311° (NW) 20:50:16 145.825 MHz
UKube-1 23 Aug 20:50:24 20:53:03 16° 64° (ENE) 20:55:43 145.840 MHz, 145.915 MHz
Oscar 11 23 Aug 21:05:27 21:07:31 13° 63° (ENE) 21:09:36 145.825 FM, Beacon 2401.500 USB
ISS 23 Aug 21:08:10 21:11:17 38° 222° (SW) 21:14:24 145.800 FM
Oscar 10/S400 23 Aug 21:14:35 21:34:57 58° 163° (SSE) 05:28:14 145.825 - 145.975 CW/USB, Beacon 145.810 USB
HO-68 23 Aug 21:31:43 21:38:52 86° 73° (ENE) 21:46:03 435.675 MHz FM
AO-40 23 Aug 21:38:49 03:20:28 39° 183° (S) 09:10:40 Beacon 2401.320
Sapphire 23 Aug 21:59:04 21:59:45 10° 326° (NW) 22:00:27 437.095 MHz 1200 baud AX-25 AFSK
STRAND 1 23 Aug 22:13:45 22:14:17 10° 303° (WNW) 22:14:49 ?
UKube-1 23 Aug 22:24:39 22:28:52 49° 260° (W) 22:33:06 145.840 MHz, 145.915 MHz
Oscar 11 23 Aug 22:38:56 22:43:12 60° 259° (W) 22:47:30 145.825 FM, Beacon 2401.500 USB
FUNcube-1 23 Aug 22:43:27 22:47:30 55° 74° (ENE) 22:51:37 145.950 - 145.970 MHz USB
HO-68 23 Aug 23:23:06 23:27:23 17° 270° (W) 23:31:41 435.675 MHz FM
MaSat-1 24 Aug 00:13:01 00:17:00 25° 51° (NE) 00:20:38 437.345 MHz
Saudisat 1A 24 Aug 00:13:33 00:16:25 17° 110° (ESE) 00:19:18 436.775 MHz
FUNcube-1 24 Aug 00:22:46 00:24:17 12° 270° (W) 00:25:48 145.950 - 145.970 MHz USB
KITSAT 1 24 Aug 00:52:47 01:00:05 39° 109° (ESE) 01:07:24 435.175 FM
MaSat-1 24 Aug 01:49:52 01:54:15 38° 253° (WSW) 01:58:07 437.345 MHz
Saudisat 1A 24 Aug 01:51:19 01:55:36 51° 307° (NW) 01:59:55 436.775 MHz
AO-Echo 24 Aug 02:16:20 02:17:36 11° 89° (E) 02:18:51 ?
Oscar 19 24 Aug 02:25:12 02:29:54 34° 97° (E) 02:34:35 437.125 CW, 437.150 USB
JAS-1B 24 Aug 02:32:29 02:37:01 18° 86° (E) 02:41:08 435.800 - 435.900 CW/SSB
ITAMSAT 1 24 Aug 02:40:56 02:44:46 21° 93° (E) 02:48:35 435.822 SSB
KITSAT 1 24 Aug 02:47:28 02:55:17 51° 309° (NW) 03:03:09 435.175 FM
Uribyol 2 24 Aug 02:52:26 02:56:53 28° 96° (E) 03:01:18 436.500 FM
Gurwin Techsat 1B 24 Aug 02:54:39 02:56:42 12° 89° (E) 02:58:44 435.225 FM
Oscar 16 24 Aug 02:58:24 03:03:37 73° 103° (ESE) 03:08:47 437.025 USB, Beacon 2401.1428
AO-27 24 Aug 03:07:13 03:12:01 37° 98° (E) 03:16:47 436.795 MHz FM
Sapphire 24 Aug 03:14:50 03:19:04 23° 46° (NE) 03:23:17 437.095 MHz 1200 baud AX-25 AFSK
PCSat 24 Aug 03:44:41 03:49:46 38° 53° (NE) 03:54:48 145.825 MHz
TMSAT-1 24 Aug 03:49:05 03:53:43 30° 96° (E) 03:58:19 436.925 FM
AO-Echo 24 Aug 03:52:12 03:56:55 73° 285° (WNW) 04:01:34 ?
Oscar 19 24 Aug 04:04:40 04:09:08 30° 293° (WNW) 04:13:36 437.125 CW, 437.150 USB
ITAMSAT 1 24 Aug 04:19:33 04:24:30 48° 290° (WNW) 04:29:26 435.822 SSB
JAS-1B 24 Aug 04:21:19 04:28:41 72° 288° (WNW) 04:34:51 435.800 - 435.900 CW/SSB
Uribyol 2 24 Aug 04:31:42 04:36:22 35° 292° (WNW) 04:41:02 436.500 FM
Gurwin Techsat 1B 24 Aug 04:31:57 04:37:16 81° 285° (WNW) 04:42:34 435.225 FM
OPAL 24 Aug 04:36:22 04:41:18 64° 71° (ENE) 04:46:21 ?
Uosat F 24 Aug 04:37:16 04:40:14 16° 91° (E) 04:43:11 435.120 FM
Oscar 16 24 Aug 04:39:25 04:42:20 15° 300° (WNW) 04:45:15 437.025 USB, Beacon 2401.1428
AO-27 24 Aug 04:47:03 04:51:22 27° 294° (WNW) 04:55:40 436.795 MHz FM
KITSAT 1 24 Aug 04:48:04 04:52:53 17° 334° (NNW) 04:57:43 435.175 FM
Sapphire 24 Aug 04:57:33 05:02:55 61° 245° (WSW) 05:08:14 437.095 MHz 1200 baud AX-25 AFSK
AO-7 24 Aug 05:07:53 05:15:30 39° 98° (E) 05:23:03 29.400 - 29.500 MHz
PCSat 24 Aug 05:28:19 05:33:03 31° 251° (WSW) 05:37:45 145.825 MHz
TMSAT-1 24 Aug 05:28:53 05:33:38 34° 292° (WNW) 05:38:21 436.925 FM
SO-50 24 Aug 06:03:47 06:08:08 56° 119° (ESE) 06:12:36 436.795 FM
STRAND 1 24 Aug 06:09:40 06:13:13 19° 63° (ENE) 06:16:47 ?
JAS-1B 24 Aug 06:14:26 06:17:38 13° 312° (NW) 06:20:38 435.800 - 435.900 CW/SSB
Uosat F 24 Aug 06:14:29 06:19:24 59° 288° (WNW) 06:24:18 435.120 FM
Gurwin Techsat 1B 24 Aug 06:14:51 06:16:22 11° 303° (WNW) 06:17:52 435.225 FM
OPAL 24 Aug 06:17:48 06:20:38 15° 267° (W) 06:23:30 ?
KITSAT 1 24 Aug 06:50:35 06:52:34 11° 6° (N) 06:54:32 435.175 FM
AO-7 24 Aug 07:00:32 07:08:23 49° 297° (WNW) 07:16:11 29.400 - 29.500 MHz
UOSAT-12 24 Aug 07:05:40 07:08:55 19° 110° (ESE) 07:12:14 437.025 FM, 437.400 FM
Hamsat 24 Aug 07:23:09 07:27:33 79° 102° (ESE) 07:31:53 145.90 MHz
JAS-2 24 Aug 07:43:11 07:48:22 89° 284° (WNW) 07:53:46 435.800 - 435.900 CW/SSB, 435.910 FM
SO-50 24 Aug 07:45:42 07:49:03 20° 318° (NW) 07:52:28 436.795 FM
STRAND 1 24 Aug 07:47:01 07:52:00 54° 260° (W) 07:57:00 ?
RS-15 24 Aug 08:25:31 08:34:51 33° 105° (ESE) 08:44:00 29.354 - 29.394 USB, Beacon 29.352 USB
SO-67 24 Aug 08:34:25 08:37:54 80° 102° (ESE) 08:41:21 435.3500 MHz FM
Saudisat 1A 24 Aug 08:39:17 08:42:19 18° 42° (NE) 08:45:21 436.775 MHz
UOSAT-12 24 Aug 08:44:12 08:48:41 50° 308° (NW) 08:53:17 437.025 FM, 437.400 FM
KITSAT 1 24 Aug 08:45:28 08:51:42 23° 36° (NE) 08:57:53 435.175 FM
AO-7 24 Aug 08:57:09 08:59:09 11° 319° (NW) 09:01:09 29.400 - 29.500 MHz
HO-68 24 Aug 09:01:37 09:05:30 15° 89° (E) 09:09:22 435.675 MHz FM
Hamsat 24 Aug 09:02:04 09:02:50 10° 299° (WNW) 09:03:36 145.90 MHz
JAS-2 24 Aug 09:31:25 09:32:44 11° 302° (WNW) 09:34:04 435.800 - 435.900 CW/SSB, 435.910 FM
UKube-1 24 Aug 10:13:11 10:16:53 27° 96° (E) 10:20:33 145.840 MHz, 145.915 MHz
Saudisat 1A 24 Aug 10:17:57 10:22:19 63° 240° (WSW) 10:26:39 436.775 MHz
Oscar 11 24 Aug 10:27:02 10:30:37 24° 95° (E) 10:34:10 145.825 FM, Beacon 2401.500 USB
FUNcube-1 24 Aug 10:34:29 10:36:01 12° 90° (E) 10:37:33 145.950 - 145.970 MHz USB
